Time,TemperatureF,DewpointF,PressureIn,WindDirection,WindDirectionDegrees,WindSpeedMPH,WindSpeedGustMPH,Humidity,HourlyPrecipIn,Conditions,Clouds,dailyrainin,SolarRadiationWatts/m^2,SoftwareType,DateUTC
2013-03-20 00:03:00,49.0,18.0,-100.00,NNW,332,3.0,7.0,29,0.00,,,0.01,0.000000,,2013-03-20 04:03:00,
2013-03-20 00:12:00,49.0,18.0,-100.00,NNW,332,3.0,7.0,29,0.00,,,0.01,0.000000,,2013-03-20 04:12:00,
2013-03-20 00:23:00,49.0,18.0,-100.00,NNW,332,3.0,7.0,29,0.00,,,0.01,0.000000,,2013-03-20 04:23:00,
2013-03-20 00:31:00,46.0,16.0,-100.00,NW,314,2.0,5.0,30,0.00,,,0.01,0.000000,,2013-03-20 04:31:00,
2013-03-20 00:53:00,46.0,16.0,-100.00,NW,314,2.0,5.0,30,0.00,,,0.01,0.000000,,2013-03-20 04:53:00,
2013-03-20 01:03:00,46.0,16.0,-100.00,NW,314,2.0,5.0,30,0.00,,,0.01,0.000000,,2013-03-20 05:03:00,
2013-03-20 01:13:00,46.0,16.0,-100.00,NW,314,2.0,5.0,30,0.00,,,0.01,0.000000,,2013-03-20 05:13:00,
2013-03-20 01:23:00,46.0,16.0,-100.00,NW,314,2.0,5.0,30,0.00,,,0.01,0.000000,,2013-03-20 05:23:00,
2013-03-20 01:31:00,45.0,16.0,-100.00,WNW,301,1.0,3.0,31,0.00,,,0.00,0.000000,,2013-03-20 05:31:00,
2013-03-20 01:53:00,45.0,16.0,-100.00,WNW,301,1.0,3.0,31,0.00,,,0.00,0.000000,,2013-03-20 05:53:00,
2013-03-20 02:03:00,45.0,16.0,-100.00,WNW,301,1.0,3.0,31,0.00,,,0.00,0.000000,,2013-03-20 06:03:00,
2013-03-20 02:13:00,45.0,16.0,-100.00,WNW,301,1.0,3.0,31,0.00,,,0.00,0.000000,,2013-03-20 06:13:00,
2013-03-20 02:22:00,45.0,16.0,-100.00,WNW,301,1.0,3.0,31,0.00,,,0.00,0.000000,,2013-03-20 06:22:00,
2013-03-20 02:31:00,43.0,14.0,-100.00,NNW,328,2.0,4.0,31,0.00,,,0.00,0.000000,,2013-03-20 06:31:00,
2013-03-20 02:53:00,43.0,14.0,-100.00,NNW,328,2.0,4.0,31,0.00,,,0.00,0.000000,,2013-03-20 06:53:00,
2013-03-20 03:02:00,43.0,14.0,-100.00,NNW,328,2.0,4.0,31,0.00,,,0.00,0.000000,,2013-03-20 07:02:00,
2013-03-20 03:12:00,43.0,14.0,-100.00,NNW,328,2.0,4.0,31,0.00,,,0.00,0.000000,,2013-03-20 07:12:00,
2013-03-20 03:22:00,43.0,14.0,-100.00,NNW,328,2.0,4.0,31,0.00,,,0.00,0.000000,,2013-03-20 07:22:00,
2013-03-20 03:31:00,44.0,13.0,-100.00,North,6,1.0,4.0,28,0.00,,,0.00,0.000000,,2013-03-20 07:31:00,
2013-03-20 03:52:00,44.0,13.0,-100.00,North,6,1.0,4.0,28,0.00,,,0.00,0.000000,,2013-03-20 07:52:00,
2013-03-20 04:02:00,44.0,13.0,-100.00,North,6,1.0,4.0,28,0.00,,,0.00,0.000000,,2013-03-20 08:02:00,
2013-03-20 04:13:00,44.0,13.0,-100.00,North,6,1.0,4.0,28,0.00,,,0.00,0.000000,,2013-03-20 08:13:00,
2013-03-20 04:22:00,44.0,13.0,-100.00,North,6,1.0,4.0,28,0.00,,,0.00,0.000000,,2013-03-20 08:22:00,
2013-03-20 04:31:00,45.0,13.0,-100.00,NNW,332,3.0,5.0,27,0.00,,,0.00,0.000000,,2013-03-20 08:31:00,
2013-03-20 04:52:00,45.0,13.0,-100.00,NNW,332,3.0,5.0,27,0.00,,,0.00,0.000000,,2013-03-20 08:52:00,
2013-03-20 05:02:00,45.0,13.0,-100.00,NNW,332,3.0,5.0,27,0.00,,,0.00,0.000000,,2013-03-20 09:02:00,
2013-03-20 05:12:00,45.0,13.0,-100.00,NNW,332,3.0,5.0,27,0.00,,,0.00,0.000000,,2013-03-20 09:12:00,
2013-03-20 05:22:00,45.0,13.0,-100.00,NNW,332,3.0,5.0,27,0.00,,,0.00,0.000000,,2013-03-20 09:22:00,
2013-03-20 05:31:00,45.0,9.0,-100.00,NNW,340,2.0,6.0,23,0.00,,,0.00,0.000000,,2013-03-20 09:31:00,
2013-03-20 05:53:00,45.0,9.0,-100.00,NNW,340,2.0,6.0,23,0.00,,,0.00,0.000000,,2013-03-20 09:53:00,
2013-03-20 06:03:00,45.0,9.0,-100.00,NNW,340,2.0,6.0,23,0.00,,,0.00,0.000000,,2013-03-20 10:03:00,
2013-03-20 06:13:00,45.0,9.0,-100.00,NNW,340,2.0,6.0,23,0.00,,,0.00,0.000000,,2013-03-20 10:13:00,
2013-03-20 06:23:00,45.0,9.0,-100.00,NNW,340,2.0,6.0,23,0.00,,,0.00,0.000000,,2013-03-20 10:23:00,
2013-03-20 06:31:00,42.0,10.0,-100.00,NNW,344,1.0,2.0,26,0.00,,,0.00,0.000000,,2013-03-20 10:31:00,
2013-03-20 06:53:00,42.0,10.0,-100.00,NNW,344,1.0,2.0,26,0.00,,,0.00,0.000000,,2013-03-20 10:53:00,
2013-03-20 07:03:00,42.0,10.0,-100.00,NNW,344,1.0,2.0,26,0.00,,,0.00,0.000000,,2013-03-20 11:03:00,
2013-03-20 07:12:00,42.0,10.0,-100.00,NNW,344,1.0,2.0,26,0.00,,,0.00,0.000000,,2013-03-20 11:12:00,
2013-03-20 07:22:00,42.0,10.0,-100.00,NNW,344,1.0,2.0,26,0.00,,,0.00,0.000000,,2013-03-20 11:22:00,
2013-03-20 07:31:00,42.0,12.0,-100.00,NNW,336,2.0,4.0,29,0.00,,,0.00,0.000000,,2013-03-20 11:31:00,
2013-03-20 07:52:00,42.0,12.0,-100.00,NNW,336,2.0,4.0,29,0.00,,,0.00,0.000000,,2013-03-20 11:52:00,
2013-03-20 08:02:00,42.0,12.0,-100.00,NNW,336,2.0,4.0,29,0.00,,,0.00,0.000000,,2013-03-20 12:02:00,
2013-03-20 08:13:00,42.0,12.0,-100.00,NNW,336,2.0,4.0,29,0.00,,,0.00,0.000000,,2013-03-20 12:13:00,
2013-03-20 08:22:00,42.0,12.0,-100.00,NNW,336,2.0,4.0,29,0.00,,,0.00,0.000000,,2013-03-20 12:22:00,
2013-03-20 08:31:00,44.0,10.0,-100.00,NNW,340,2.0,7.0,25,0.00,,,0.00,45.000000,,2013-03-20 12:31:00,
2013-03-20 08:53:00,44.0,10.0,-100.00,NNW,340,2.0,7.0,25,0.00,,,0.00,45.000000,,2013-03-20 12:53:00,
2013-03-20 09:03:00,44.0,10.0,-100.00,NNW,340,2.0,7.0,25,0.00,,,0.00,45.000000,,2013-03-20 13:03:00,
2013-03-20 09:12:00,44.0,10.0,-100.00,NNW,340,2.0,7.0,25,0.00,,,0.00,45.000000,,2013-03-20 13:12:00,
2013-03-20 09:22:00,44.0,10.0,-100.00,NNW,340,2.0,7.0,25,0.00,,,0.00,45.000000,,2013-03-20 13:22:00,
2013-03-20 09:31:00,46.0,10.0,-100.00,NNW,346,4.0,7.0,23,0.00,,,0.00,153.000000,,2013-03-20 13:31:00,
2013-03-20 09:53:00,46.0,10.0,-100.00,NNW,346,4.0,7.0,23,0.00,,,0.00,153.000000,,2013-03-20 13:53:00,
2013-03-20 10:03:00,46.0,10.0,-100.00,NNW,346,4.0,7.0,23,0.00,,,0.00,153.000000,,2013-03-20 14:03:00,
2013-03-20 10:12:00,46.0,10.0,-100.00,NNW,346,4.0,7.0,23,0.00,,,0.00,153.000000,,2013-03-20 14:12:00,
2013-03-20 10:23:00,46.0,10.0,-100.00,NNW,346,4.0,7.0,23,0.00,,,0.00,153.000000,,2013-03-20 14:23:00,
2013-03-20 10:31:00,47.0,10.0,-100.00,North,5,2.0,8.0,22,0.00,,,0.00,246.000000,,2013-03-20 14:31:00,
2013-03-20 10:53:00,47.0,10.0,-100.00,North,5,2.0,8.0,22,0.00,,,0.00,246.000000,,2013-03-20 14:53:00,
2013-03-20 11:03:00,47.0,10.0,-100.00,North,5,2.0,8.0,22,0.00,,,0.00,246.000000,,2013-03-20 15:03:00,
2013-03-20 11:13:00,47.0,10.0,-100.00,North,5,2.0,8.0,22,0.00,,,0.00,246.000000,,2013-03-20 15:13:00,
2013-03-20 11:22:00,47.0,10.0,-100.00,North,5,2.0,8.0,22,0.00,,,0.00,246.000000,,2013-03-20 15:22:00,
2013-03-20 11:31:00,49.0,10.0,-100.00,ENE,68,3.0,7.0,20,0.00,,,0.00,425.000000,,2013-03-20 15:31:00,
2013-03-20 11:53:00,49.0,10.0,-100.00,ENE,68,3.0,7.0,20,0.00,,,0.00,425.000000,,2013-03-20 15:53:00,
2013-03-20 12:03:00,49.0,10.0,-100.00,ENE,68,3.0,7.0,20,0.00,,,0.00,425.000000,,2013-03-20 16:03:00,
2013-03-20 12:13:00,49.0,10.0,-100.00,ENE,68,3.0,7.0,20,0.00,,,0.00,425.000000,,2013-03-20 16:13:00,
2013-03-20 12:23:00,49.0,10.0,-100.00,ENE,68,3.0,7.0,20,0.00,,,0.00,425.000000,,2013-03-20 16:23:00,
2013-03-20 12:31:00,51.0,9.0,-100.00,WNW,303,3.0,8.0,18,0.00,,,0.00,541.000000,,2013-03-20 16:31:00,
2013-03-20 12:53:00,51.0,9.0,-100.00,WNW,303,3.0,8.0,18,0.00,,,0.00,541.000000,,2013-03-20 16:53:00,
2013-03-20 13:03:00,51.0,9.0,-100.00,WNW,303,3.0,8.0,18,0.00,,,0.00,541.000000,,2013-03-20 17:03:00,
2013-03-20 13:12:00,51.0,9.0,-100.00,WNW,303,3.0,8.0,18,0.00,,,0.00,541.000000,,2013-03-20 17:12:00,
2013-03-20 13:22:00,51.0,9.0,-100.00,WNW,303,3.0,8.0,18,0.00,,,0.00,541.000000,,2013-03-20 17:22:00,
2013-03-20 13:31:00,56.0,12.0,-100.00,SW,229,4.0,8.0,17,0.00,,,0.00,752.000000,,2013-03-20 17:31:00,
2013-03-20 13:53:00,56.0,12.0,-100.00,SW,229,4.0,8.0,17,0.00,,,0.00,752.000000,,2013-03-20 17:53:00,
2013-03-20 14:02:00,56.0,12.0,-100.00,SW,229,4.0,8.0,17,0.00,,,0.00,752.000000,,2013-03-20 18:02:00,
2013-03-20 14:12:00,56.0,12.0,-100.00,SW,229,4.0,8.0,17,0.00,,,0.00,752.000000,,2013-03-20 18:12:00,
2013-03-20 14:22:00,56.0,12.0,-100.00,SW,229,4.0,8.0,17,0.00,,,0.00,752.000000,,2013-03-20 18:22:00,
2013-03-20 14:31:00,57.0,13.0,-100.00,West,280,4.0,12.0,17,0.00,,,0.00,881.000000,,2013-03-20 18:31:00,
2013-03-20 14:53:00,57.0,13.0,-100.00,West,280,4.0,12.0,17,0.00,,,0.00,881.000000,,2013-03-20 18:53:00,
2013-03-20 15:02:00,57.0,13.0,-100.00,West,280,4.0,12.0,17,0.00,,,0.00,881.000000,,2013-03-20 19:02:00,
2013-03-20 15:12:00,57.0,13.0,-100.00,West,280,4.0,12.0,17,0.00,,,0.00,881.000000,,2013-03-20 19:12:00,
2013-03-20 15:23:00,57.0,13.0,-100.00,West,280,4.0,12.0,17,0.00,,,0.00,881.000000,,2013-03-20 19:23:00,
2013-03-20 15:31:00,59.0,14.0,-100.00,SW,229,4.0,12.0,17,0.00,,,0.00,877.000000,,2013-03-20 19:31:00,
2013-03-20 15:53:00,59.0,14.0,-100.00,SW,229,4.0,12.0,17,0.00,,,0.00,877.000000,,2013-03-20 19:53:00,
2013-03-20 16:02:00,59.0,14.0,-100.00,SW,229,4.0,12.0,17,0.00,,,0.00,877.000000,,2013-03-20 20:02:00,
2013-03-20 16:13:00,59.0,14.0,-100.00,SW,229,4.0,12.0,17,0.00,,,0.00,877.000000,,2013-03-20 20:13:00,
2013-03-20 16:22:00,59.0,14.0,-100.00,SW,229,4.0,12.0,17,0.00,,,0.00,877.000000,,2013-03-20 20:22:00,
2013-03-20 16:31:00,58.0,15.0,-100.00,West,271,5.0,12.0,18,0.00,,,0.00,795.000000,,2013-03-20 20:31:00,
2013-03-20 16:53:00,58.0,15.0,-100.00,West,271,5.0,12.0,18,0.00,,,0.00,795.000000,,2013-03-20 20:53:00,
2013-03-20 17:02:00,58.0,15.0,-100.00,West,271,5.0,12.0,18,0.00,,,0.00,795.000000,,2013-03-20 21:02:00,
2013-03-20 17:12:00,58.0,15.0,-100.00,West,271,5.0,12.0,18,0.00,,,0.00,795.000000,,2013-03-20 21:12:00,
2013-03-20 17:23:00,58.0,15.0,-100.00,West,271,5.0,12.0,18,0.00,,,0.00,795.000000,,2013-03-20 21:23:00,
2013-03-20 17:31:00,59.0,14.0,-100.00,SSE,168,3.0,11.0,17,0.00,,,0.00,624.000000,,2013-03-20 21:31:00,
2013-03-20 17:53:00,59.0,14.0,-100.00,SSE,168,3.0,11.0,17,0.00,,,0.00,624.000000,,2013-03-20 21:53:00,
2013-03-20 18:03:00,59.0,14.0,-100.00,SSE,168,3.0,11.0,17,0.00,,,0.00,624.000000,,2013-03-20 22:03:00,
2013-03-20 18:13:00,59.0,14.0,-100.00,SSE,168,3.0,11.0,17,0.00,,,0.00,624.000000,,2013-03-20 22:13:00,
2013-03-20 18:23:00,59.0,14.0,-100.00,SSE,168,3.0,11.0,17,0.00,,,0.00,624.000000,,2013-03-20 22:23:00,
2013-03-20 18:31:00,59.0,16.0,-100.00,SSW,193,3.0,16.0,18,0.00,,,0.00,395.000000,,2013-03-20 22:31:00,
2013-03-20 18:53:00,59.0,16.0,-100.00,SSW,193,3.0,16.0,18,0.00,,,0.00,395.000000,,2013-03-20 22:53:00,
2013-03-20 19:03:00,59.0,16.0,-100.00,SSW,193,3.0,16.0,18,0.00,,,0.00,395.000000,,2013-03-20 23:03:00,
2013-03-20 19:12:00,59.0,16.0,-100.00,SSW,193,3.0,16.0,18,0.00,,,0.00,395.000000,,2013-03-20 23:12:00,
2013-03-20 19:23:00,59.0,16.0,-100.00,SSW,193,3.0,16.0,18,0.00,,,0.00,395.000000,,2013-03-20 23:23:00,
2013-03-20 19:31:00,52.0,13.0,-100.00,South,174,2.0,8.0,21,0.00,,,0.00,102.000000,,2013-03-20 23:31:00,
2013-03-20 19:53:00,52.0,13.0,-100.00,South,174,2.0,8.0,21,0.00,,,0.00,102.000000,,2013-03-20 23:53:00,
2013-03-20 20:03:00,52.0,13.0,-100.00,South,174,2.0,8.0,21,0.00,,,0.00,102.000000,,2013-03-21 00:03:00,
2013-03-20 20:13:00,52.0,13.0,-100.00,South,174,2.0,8.0,21,0.00,,,0.00,102.000000,,2013-03-21 00:13:00,
2013-03-20 20:23:00,52.0,13.0,-100.00,South,174,2.0,8.0,21,0.00,,,0.00,102.000000,,2013-03-21 00:23:00,
2013-03-20 20:31:00,51.0,17.0,-100.00,South,177,2.0,5.0,26,0.00,,,0.00,1.000000,,2013-03-21 00:31:00,
2013-03-20 20:53:00,51.0,17.0,-100.00,South,177,2.0,5.0,26,0.00,,,0.00,1.000000,,2013-03-21 00:53:00,
2013-03-20 21:02:00,51.0,17.0,-100.00,South,177,2.0,5.0,26,0.00,,,0.00,1.000000,,2013-03-21 01:02:00,
2013-03-20 21:12:00,51.0,17.0,-100.00,South,177,2.0,5.0,26,0.00,,,0.00,1.000000,,2013-03-21 01:12:00,
2013-03-20 21:22:00,51.0,17.0,-100.00,South,177,2.0,5.0,26,0.00,,,0.00,1.000000,,2013-03-21 01:22:00,
2013-03-20 21:31:00,49.0,17.0,-100.00,NE,36,1.0,3.0,28,0.00,,,0.00,0.000000,,2013-03-21 01:31:00,
2013-03-20 21:53:00,49.0,17.0,-100.00,NE,36,1.0,3.0,28,0.00,,,0.00,0.000000,,2013-03-21 01:53:00,
2013-03-20 22:03:00,49.0,17.0,-100.00,NE,36,1.0,3.0,28,0.00,,,0.00,0.000000,,2013-03-21 02:03:00,
2013-03-20 22:13:00,49.0,17.0,-100.00,NE,36,1.0,3.0,28,0.00,,,0.00,0.000000,,2013-03-21 02:13:00,
2013-03-20 22:23:00,49.0,17.0,-100.00,NE,36,1.0,3.0,28,0.00,,,0.00,0.000000,,2013-03-21 02:23:00,
2013-03-20 22:31:00,48.0,22.0,-100.00,NW,321,4.0,9.0,35,0.00,,,0.00,0.000000,,2013-03-21 02:31:00,
2013-03-20 23:02:00,48.0,22.0,-100.00,NW,321,4.0,9.0,35,0.00,,,0.00,0.000000,,2013-03-21 03:02:00,
2013-03-20 23:12:00,48.0,22.0,-100.00,NW,321,4.0,9.0,35,0.00,,,0.00,0.000000,,2013-03-21 03:12:00,
2013-03-20 23:22:00,48.0,22.0,-100.00,NW,321,4.0,9.0,35,0.00,,,0.00,0.000000,,2013-03-21 03:22:00,
2013-03-20 23:31:00,47.0,16.0,-100.00,NW,307,3.0,10.0,28,0.00,,,0.00,0.000000,,2013-03-21 03:31:00,
2013-03-20 23:53:00,47.0,16.0,-100.00,NW,307,3.0,10.0,28,0.00,,,0.00,0.000000,,2013-03-21 03:53:00,